Retour au catalogue

AURORA 2

ActifCommunicationsGEO
NORAD 21392·PAYLOAD·🇺🇸 United States

Lancé May 29, 1991 depuis Cape Canaveral Space Force Station

Loading…

TLE

FraisSource: Space-Track

Époque: Sep 13, 2026, 14:57 UTC

1 21392U 91037A   26256.62336441 -.00000307  00000-0  00000-0 0  9998
2 21392  14.7389   4.5933 0006430 265.2109  93.2287  0.99020304127607

Suivez AURORA 2 en temps réel avec AllMySat

Download on the App Store